AFL1450 UNNT-UNEE

Flight info

Callsign AFL1450
Flight time 0h 28m
Altitude 25000
Route OGATI
Aircraft A320/M-SDE3FGHIRWY/LB1

Departure

Time 2026-04-25 11:53
Airport Novosibirsk Tolmachevo Airport (UNNT)

Arrival

Time 2026-04-25 12:21
Airport Alexei Leonov Kemerovo International Airport (UNEE)
Time Latitude Longitude Altitude Speed Heading
2026-04-25 11:49 55.01068 82.66329 373 ft 0 kts 171°
2026-04-25 11:50 55.01064 82.66330 373 ft 2 kts 171°
2026-04-25 11:50 55.01031 82.66347 373 ft 7 kts 145°
2026-04-25 11:51 55.01037 82.66455 373 ft 12 kts 70°
2026-04-25 11:51 55.01072 82.66599 373 ft 9 kts 68°
2026-04-25 11:51 55.01133 82.66653 373 ft 13 kts 356°
2026-04-25 11:51 55.01237 82.66628 373 ft 18 kts 351°
2026-04-25 11:52 55.01361 82.66584 374 ft 17 kts 329°
2026-04-25 11:52 55.01364 82.66385 374 ft 21 kts 261°
2026-04-25 11:52 55.01308 82.65767 372 ft 87 kts 261°
2026-04-25 11:52 55.01171 82.64359 377 ft 146 kts 257°
2026-04-25 11:53 55.00967 82.62570 997 ft 151 kts 257°
2026-04-25 11:53 55.00795 82.60745 1760 ft 156 kts 256°
2026-04-25 11:53 55.00601 82.58762 2241 ft 177 kts 257°
2026-04-25 11:53 55.00378 82.56525 2629 ft 200 kts 257°
2026-04-25 11:54 55.00359 82.53948 3064 ft 230 kts 284°
2026-04-25 11:54 55.01341 82.51556 3586 ft 262 kts 323°
2026-04-25 11:54 55.04980 82.51539 5392 ft 286 kts 33°
2026-04-25 11:55 55.06273 82.54145 6352 ft 289 kts 67°
2026-04-25 11:55 55.06581 82.57574 7253 ft 290 kts 100°
2026-04-25 11:55 55.05811 82.60768 8121 ft 288 kts 131°
2026-04-25 11:55 55.04514 82.63459 9020 ft 292 kts 134°
2026-04-25 11:56 55.03183 82.66166 9916 ft 297 kts 134°
2026-04-25 11:56 55.01800 82.68968 10443 ft 315 kts 134°
2026-04-25 11:56 55.00404 82.72094 10752 ft 342 kts 124°
2026-04-25 11:56 54.99280 82.75907 11117 ft 364 kts 115°
2026-04-25 11:57 54.98356 82.80081 11764 ft 373 kts 111°
2026-04-25 11:57 54.97540 82.84416 12484 ft 380 kts 109°
2026-04-25 11:57 54.96743 82.88842 13203 ft 386 kts 109°
2026-04-25 11:57 54.95915 82.93328 13913 ft 392 kts 110°
2026-04-25 11:58 54.95039 82.97856 14579 ft 397 kts 111°
2026-04-25 11:58 54.94118 83.02400 15294 ft 400 kts 112°
2026-04-25 11:58 54.93215 83.06993 16000 ft 404 kts 107°
2026-04-25 11:58 54.92689 83.11808 16690 ft 409 kts 97°
2026-04-25 11:59 54.92478 83.16774 17387 ft 412 kts 95°
2026-04-25 11:59 54.92283 83.21753 18085 ft 415 kts 95°
2026-04-25 11:59 54.92093 83.26780 18712 ft 418 kts 95°
2026-04-25 12:00 54.91701 83.36935 19878 ft 424 kts 95°
2026-04-25 12:00 54.91494 83.42057 20463 ft 426 kts 95°
2026-04-25 12:00 54.91061 83.52460 21602 ft 431 kts 95°
2026-04-25 12:01 54.90839 83.57676 22150 ft 434 kts 95°
2026-04-25 12:01 54.90617 83.62923 22696 ft 437 kts 95°
2026-04-25 12:01 54.90394 83.68202 23238 ft 439 kts 95°
2026-04-25 12:01 54.90167 83.73512 23746 ft 442 kts 95°
2026-04-25 12:02 54.89698 83.84232 24592 ft 448 kts 95°
2026-04-25 12:02 54.89458 83.89641 24962 ft 450 kts 95°
2026-04-25 12:02 54.89214 83.95075 25073 ft 453 kts 95°
2026-04-25 12:03 54.88964 84.00585 25098 ft 463 kts 95°
2026-04-25 12:03 54.88706 84.06231 25103 ft 476 kts 95°
2026-04-25 12:03 54.88439 84.12024 25094 ft 487 kts 95°
2026-04-25 12:03 54.88163 84.17949 25094 ft 496 kts 95°
2026-04-25 12:04 54.87878 84.23947 25094 ft 502 kts 95°
2026-04-25 12:04 54.87587 84.30008 25097 ft 503 kts 95°
2026-04-25 12:04 54.87301 84.35954 25095 ft 484 kts 95°
2026-04-25 12:04 54.87022 84.41665 25100 ft 467 kts 95°
2026-04-25 12:05 54.86744 84.47233 25103 ft 462 kts 95°
2026-04-25 12:05 54.86464 84.52784 25101 ft 461 kts 95°
2026-04-25 12:05 54.86184 84.58316 25102 ft 460 kts 94°
2026-04-25 12:05 54.86143 84.63864 24971 ft 459 kts 86°
2026-04-25 12:06 54.86573 84.69327 24209 ft 453 kts 75°
2026-04-25 12:06 54.87500 84.74454 23545 ft 442 kts 66°
2026-04-25 12:06 54.88682 84.79371 22853 ft 438 kts 65°
2026-04-25 12:06 54.89828 84.84235 22273 ft 433 kts 66°
2026-04-25 12:07 54.90946 84.89080 21682 ft 429 kts 66°
2026-04-25 12:07 54.92055 84.93940 21122 ft 425 kts 66°
2026-04-25 12:07 54.93133 84.98695 20588 ft 421 kts 66°
2026-04-25 12:07 54.94203 85.03415 20068 ft 421 kts 66°
2026-04-25 12:08 54.95292 85.08178 19557 ft 425 kts 66°
2026-04-25 12:08 54.96386 85.12959 19050 ft 425 kts 66°
2026-04-25 12:08 54.97473 85.17716 18547 ft 423 kts 66°
2026-04-25 12:08 54.98555 85.22477 17998 ft 421 kts 66°
2026-04-25 12:09 54.99623 85.27191 17479 ft 418 kts 66°
2026-04-25 12:09 55.00684 85.31884 16975 ft 415 kts 66°
2026-04-25 12:09 55.01737 85.36558 16450 ft 412 kts 66°
2026-04-25 12:09 55.02776 85.41183 15920 ft 409 kts 66°
2026-04-25 12:10 55.03810 85.45788 15390 ft 407 kts 66°
2026-04-25 12:10 55.04832 85.50349 14832 ft 403 kts 66°
2026-04-25 12:10 55.05851 85.54895 14279 ft 402 kts 66°
2026-04-25 12:10 55.06865 85.59423 13678 ft 397 kts 66°
2026-04-25 12:11 55.07860 85.63884 13111 ft 394 kts 66°
2026-04-25 12:11 55.08848 85.68325 12539 ft 391 kts 66°
2026-04-25 12:11 55.09827 85.72742 11969 ft 389 kts 66°
2026-04-25 12:11 55.10797 85.77123 11366 ft 382 kts 67°
2026-04-25 12:12 55.11744 85.81418 10792 ft 374 kts 67°
2026-04-25 12:12 55.12361 85.84228 10603 ft 357 kts 67°
2026-04-25 12:12 55.13489 85.89373 10379 ft 325 kts 67°
2026-04-25 12:12 55.14282 85.92986 10094 ft 315 kts 67°
2026-04-25 12:13 55.15058 85.96529 9961 ft 311 kts 67°
2026-04-25 12:13 55.15569 85.98865 9871 ft 310 kts 68°
2026-04-25 12:13 55.16596 86.03554 9691 ft 308 kts 67°
2026-04-25 12:13 55.17103 86.05870 9599 ft 307 kts 68°
2026-04-25 12:14 55.17866 86.09367 9182 ft 308 kts 68°
2026-04-25 12:14 55.18619 86.12828 8659 ft 301 kts 68°
2026-04-25 12:14 55.19359 86.16225 8141 ft 298 kts 68°
2026-04-25 12:14 55.20180 86.19531 7637 ft 293 kts 58°
2026-04-25 12:15 55.21334 86.22424 7018 ft 289 kts 50°
2026-04-25 12:15 55.22555 86.25199 6378 ft 286 kts 50°
2026-04-25 12:15 55.23758 86.27951 5744 ft 282 kts 51°
2026-04-25 12:15 55.24941 86.30663 5146 ft 278 kts 51°
2026-04-25 12:16 55.26106 86.33331 4542 ft 273 kts 51°
2026-04-25 12:16 55.27325 86.35831 3948 ft 267 kts 38°
2026-04-25 12:16 55.28971 86.37277 3377 ft 259 kts 10°
2026-04-25 12:16 55.30678 86.37233 3218 ft 234 kts 345°
2026-04-25 12:17 55.32087 86.36119 3131 ft 215 kts 322°
2026-04-25 12:17 55.33084 86.34273 2943 ft 211 kts 300°
2026-04-25 12:17 55.33622 86.31861 2764 ft 208 kts 283°
2026-04-25 12:17 55.33873 86.29437 2606 ft 198 kts 271°
2026-04-25 12:18 55.33664 86.27086 2529 ft 195 kts 250°
2026-04-25 12:18 55.32995 86.25023 2419 ft 195 kts 234°
2026-04-25 12:18 55.32196 86.23125 2233 ft 190 kts 234°
2026-04-25 12:18 55.31420 86.21278 1993 ft 185 kts 234°
2026-04-25 12:19 55.30237 86.18459 1628 ft 162 kts 233°
2026-04-25 12:19 55.29379 86.16414 1362 ft 149 kts 233°
2026-04-25 12:19 55.28774 86.14972 1176 ft 145 kts 233°
2026-04-25 12:20 55.28181 86.13551 992 ft 143 kts 233°
2026-04-25 12:20 55.27607 86.12153 847 ft 134 kts 233°
2026-04-25 12:20 55.27142 86.11080 839 ft 85 kts 233°
2026-04-25 12:20 55.26874 86.10447 834 ft 55 kts 234°
2026-04-25 12:21 55.26658 86.09934 845 ft 50 kts 233°
2026-04-25 12:21 55.26457 86.09452 841 ft 48 kts 233°
2026-04-25 12:21 55.26287 86.09053 831 ft 31 kts 234°
2026-04-25 12:21 55.26238 86.08784 837 ft 16 kts 277°
2026-04-25 12:22 55.26177 86.08754 837 ft 8 kts 110°
2026-04-25 12:22 55.26207 86.08863 837 ft 13 kts 54°
2026-04-25 12:22 55.26273 86.09023 836 ft 20 kts 53°
2026-04-25 12:22 55.26371 86.09254 838 ft 27 kts 53°
2026-04-25 12:23 55.26496 86.09549 835 ft 33 kts 53°
2026-04-25 12:23 55.26616 86.09769 838 ft 22 kts 36°
2026-04-25 12:23 55.26777 86.09890 841 ft 29 kts 18°
2026-04-25 12:23 55.26990 86.10009 840 ft 35 kts 19°
2026-04-25 12:24 55.27221 86.10140 843 ft 29 kts 19°
2026-04-25 12:24 55.27367 86.10426 847 ft 35 kts 55°
2026-04-25 12:24 55.27516 86.10802 845 ft 40 kts 55°
2026-04-25 12:24 55.27653 86.11150 849 ft 35 kts 55°
2026-04-25 12:25 55.27800 86.11526 851 ft 37 kts 56°
2026-04-25 12:25 55.27887 86.11682 843 ft 16 kts 18°
2026-04-25 12:25 55.27978 86.11651 847 ft 12 kts 325°
2026-04-25 12:25 55.27990 86.11636 848 ft 0 kts 325°